Location: Alafon
(8.4500°N, 4.2333°E)
Time: 00:21:46
(UTC+00:00)

deb Explorer IX - Pass Details

Date: 30 July 2021
Orbit: 545 x 1091 km, 38.8° (Epoch: 19 September)

Event Time Altitude Azimuth Distance (km) Brightness Sun altitude
Rises 19:59:15 0° 318° (NW) 3,775 ? -27.2°
Reaches altitude 10° 20:01:58 10° 323° (NW) 2,869 ? -27.8°
Maximum altitude 20:08:55 54° 39° (NE) 1,295 ? -29.4°
Enters shadow 20:09:11 54° 47° (NE) 1,299 ? -29.4°
Drops below altitude 10° 20:15:56 10° 115° (ESE) 2,901 - -30.9°
Sets 20:18:41 0° 119° (ESE) 3,821 - -31.5°
